Regional Weather Roundup
Issued by NWS

Home | Current Version | Previous Version | Text Only | Print | Product List | Glossary On
Versions: 1 2 3 4 5 6 7 8 9 10 11 12 13 14 15 16 17 18 19 20 21 22 23 24 25 26 27 28 29 30 31 32 33 34 35 36 37 38 39 40 41 42 43 44 45 46 47 48 49 50
000
ASUS43 KDTX 180010
RWRMI
MICHIGAN HOURLY REGIONAL WEATHER ROUNDUP
NATIONAL WEATHER SERVICE DETROIT/PONTIAC MI
ISSUED BY NATIONAL WEATHER SERVICE GRAND RAPIDS MI
800 PM EDT THU AUG 17 2017

NOTE: "FAIR" INDICATES FEW OR NO CLOUDS BELOW 12,000 FEET WITH NO
SIGNIFICANT WEATHER AND/OR OBSTRUCTION TO VISIBILITY.

MIZ047>049-052>055-059>063-066>070-074>076-081>083-180100-
SOUTHEAST LOWER MICHIGAN

CITY           SKY/WX    TMP DP  RH WIND       PRES   REMARKS
ADRIAN         PTCLDY    79  65  62 W8        29.75S
6HR MIN TEMP:  70; 6HR MAX TEMP:  84; 6HR PCP:  0.05;

ALMA           MOCLDY    75  67  76 SW9G18    29.69R
ANN ARBOR      PTCLDY    79  69  71 SW12      29.72S
BAD AXE        PTCLDY    75  71  86 S8        29.67F
6HR MIN TEMP:  71; 6HR MAX TEMP:  78;

DETROIT CITY   PTCLDY    79  74  84 S8        29.70F
6HR MIN TEMP:  74; 6HR MAX TEMP:  79; 6HR PCP:  0.32;

DETROIT        PTCLDY    81  72  74 S16       29.71F
6HR MIN TEMP:  74; 6HR MAX TEMP:  82; 6HR PCP:  0.19;

FLINT          MOCLDY    73  69  87 SW5       29.69F
6HR MIN TEMP:  71; 6HR MAX TEMP:  82; 6HR PCP:  0.80;

GROSSE ILE     CLEAR     81  72  74 SW8       29.71S
6HR MIN TEMP:  71; 6HR MAX TEMP:  81; 6HR PCP:  0.06;

HILLSDALE      CLOUDY    73  68  83 SW8       29.76R
HOWELL         CLOUDY    79  68  68 SW9G17    29.71R
6HR MIN TEMP:  74; 6HR MAX TEMP:  83; 6HR PCP:  0.59;


CITY           SKY/WX    TMP DP  RH WIND       PRES   REMARKS
JACKSON          N/A     79  68  69 SW16      29.73S
6HR MIN TEMP:  76; 6HR MAX TEMP:  83; 6HR PCP: TRACE;

LANSING        PTCLDY    79  65  62 W15       29.70F
6HR MIN TEMP:  76; 6HR MAX TEMP:  84; 6HR PCP:  0.03;

MASON          MOCLDY    80  69  68 SW7       29.71S
MONROE         CLEAR     81  70  68 SW7       29.72S
6HR MIN TEMP:  72; 6HR MAX TEMP:  83; 6HR PCP:  0.54;

MT. CLEMENS    PTCLDY    77  76  97 S8        29.70F
6HR MIN TEMP:  75; 6HR MAX TEMP:  77; 6HR PCP:  0.23;

PONTIAC        MOCLDY    79  73  82 S8        29.70F
6HR MIN TEMP:  73; 6HR MAX TEMP:  80; 6HR PCP:  0.03;

PORT HOPE        N/A     74  71  91 SE6       29.65F
6HR MIN TEMP:  70; 6HR MAX TEMP:  75; 6HR PCP:  0.08;

PORT HURON     CLOUDY    77  72  83 S7        29.71F
TRI CITIES     PTCLDY    79  72  79 SW13      29.67S
6HR MIN TEMP:  74; 6HR MAX TEMP:  81; 6HR PCP:  0.36;

YPSILANTI      CLEAR     82  70  66 SW14      29.71F
6HR MIN TEMP:  76; 6HR MAX TEMP:  84; 6HR PCP:  0.19;

$$
MIZ043>046-050>051-056>058-064>065-071>073-077>080-180100-
SOUTHWEST LOWER MICHIGAN

CITY           SKY/WX    TMP DP  RH WIND       PRES   REMARKS
BATTLE CREEK   PTCLDY    79  67  66 SW9       29.74R
6HR MIN TEMP:  79; 6HR MAX TEMP:  85;

BENTON HARBOR  CLEAR     79  63  57 SW17      29.73S
6HR MIN TEMP:  79; 6HR MAX TEMP:  85;

BIG RAPIDS     MOCLDY    71  67  87 SW7       29.67S
6HR MIN TEMP:  70; 6HR MAX TEMP:  75; 6HR PCP:  0.08;

COLDWATER      CLEAR     78  67  67 SW13      29.75S
6HR MIN TEMP:  78; 6HR MAX TEMP:  83;

HOLLAND        MOCLDY    76  66  71 SW13G21   29.71S
6HR MIN TEMP:  75; 6HR MAX TEMP:  80; 6HR PCP: TRACE;

GRAND RAPIDS   MOCLDY    77  67  71 SW14G25   29.70S
6HR MIN TEMP:  77; 6HR MAX TEMP:  83; 6HR PCP: TRACE;

KALAMAZOO      PTCLDY    80  64  58 SW13      29.73S
6HR MIN TEMP:  80; 6HR MAX TEMP:  86;

MARSHALL       PTCLDY    79  67  66 SW9       29.73S
6HR MIN TEMP:  78; 6HR MAX TEMP:  85;

MOUNT PLEASANT MOCLDY    78  65  64 SW14G25   29.66S
6HR MIN TEMP:  77; 6HR MAX TEMP:  82;

MUSKEGON       MOCLDY    76  66  71 SW17      29.67F
6HR MIN TEMP:  74; 6HR MAX TEMP:  79; 6HR PCP: TRACE;

STURGIS        CLEAR     77  66  68 SW12G18   29.76R
6HR MIN TEMP:  77; 6HR MAX TEMP:  83;

$$
MIZ016>042-180100-
NORTHERN LOWER MICHIGAN

CITY           SKY/WX    TMP DP  RH WIND       PRES   REMARKS
ALPENA         CLOUDY    70  70 100 SE6       29.63F FOG
6HR MIN TEMP:  69; 6HR MAX TEMP:  72; 6HR PCP:  0.02;

BEAVER ISLAND  CLOUDY    73  67  81 S12G18    29.58S
6HR MIN TEMP:  72; 6HR MAX TEMP:  78;

BELLAIRE       CLOUDY    75  68  78 S5        29.60S
6HR MIN TEMP:  73; 6HR MAX TEMP:  78;

CADILLAC       MOCLDY    73  67  83 S9        29.65S
CHARLEVOIX     CLOUDY    73  68  86 S6        29.62S
GAYLORD        CLOUDY    73  68  84 SW6       29.63F
6HR MIN TEMP:  71; 6HR MAX TEMP:  75; 6HR PCP:  0.12;

HOUGHTON LAKE  CLOUDY    73  67  81 SW12      29.66F
6HR MIN TEMP:  71; 6HR MAX TEMP:  77; 6HR PCP:  0.23;

OSCODA         CLOUDY    75  71  89 S12       29.64F
6HR MIN TEMP:  70; 6HR MAX TEMP:  77;

PELLSTON       HVY RAIN  71  70  96 S6        29.60S FOG
6HR MIN TEMP:  70; 6HR MAX TEMP:  74; 6HR PCP:  0.14;

TRAVERSE CITY  CLOUDY    75  67  76 SW6G17    29.58F
6HR MIN TEMP:  75; 6HR MAX TEMP:  81; 6HR PCP:  0.08;

LUDINGTON      CLOUDY    72  66  80 SW12G21   29.62S
6HR MIN TEMP:  72; 6HR MAX TEMP:  78;

$$
MIZ007>008-015-180100-
EASTERN UPPER MICHIGAN

CITY           SKY/WX    TMP DP  RH WIND       PRES   REMARKS
KINROSS        LGT RAIN  66  66 100 E10       29.63R FOG
6HR MIN TEMP:  65; 6HR MAX TEMP:  66;

MACKINAC ISLAN FOG       67  67 100 E8        29.60F VSB 3/4
NEWBERRY       CLOUDY    67  66  97 SE3       29.59S FOG
6HR MIN TEMP:  65; 6HR MAX TEMP:  68; 6HR PCP:  0.13;

S. S. MARIE    LGT RAIN  66  65  96 E12G17    29.62F FOG
6HR MIN TEMP:  65; 6HR MAX TEMP:  66; 6HR PCP:  0.64;

$$
MIZ004>006-011>014-085-180100-
CENTRAL UPPER MICHIGAN

CITY           SKY/WX    TMP DP  RH WIND       PRES   REMARKS
MANISTIQUE     CLOUDY    68  62  80 S5        29.56S HAZE
6HR MIN TEMP:  67; 6HR MAX TEMP:  69; 6HR PCP:  0.09;

ESCANABA       PTCLDY    71  67  87 S7        29.52
6HR MIN TEMP:  71; 6HR MAX TEMP:  75; 6HR PCP:  0.09;

MENOMINEE      CLOUDY    73  66  78 SW8       29.53S
SAWYER-GWINN   HVY RAIN  66  66 100 W7        29.55S
$$
MIZ001>003-009>011-084-180100-
WESTERN UPPER MICHIGAN

CITY           SKY/WX    TMP DP  RH WIND       PRES   REMARKS
IRON MOUNTAIN  LGT RAIN  69  65  86 N6        29.53S FOG
6HR MIN TEMP:  69; 6HR MAX TEMP:  81; 6HR PCP:  0.09;

HOUGHTON       CLOUDY    66  64  93 NW7       29.55R
6HR MIN TEMP:  64; 6HR MAX TEMP:  67; 6HR PCP:  0.60;

COPPER HARBOR    N/A     62  61  96 SE3       29.52F
6HR MIN TEMP:  56; 6HR MAX TEMP:  64; 6HR PCP:  0.25;

IRONWOOD       LGT RAIN  59  58  96 NW13      29.68R FOG
6HR MIN TEMP:  58; 6HR MAX TEMP:  66;

$$

ABBREVIATIONS USED IN REMARKS
   TC - TEMPERATURE IN CELSIUS
  WCI - WIND CHILL INDEX
   HX - HEAT INDEX
  VSB - VISIBILITY





USA.gov is the U.S. government's official web portal to all federal, state and local government web resources and services.